Погода в Сан-Антонио-Абаде

Испания     38°58′59″N   1°18′16″E
темп.,
°C
ветер,
м/с
пор.,
м/с
влажн.,
%
обл.,
%
осадки,
мм/ч
давл.,
гПа
погр.,
м
17 апреля, сб
сб1723:00+13ссв236599 0.3 1018237
02:00+13с4557100 0.8 1018652
05:00+12св2261100 0.1 1017441
08:00+12всв3457100 0.3 1018684
11:00+13ссв435358 0.1 10181271
14:00+12ссв335858 0.9 10181036
17:00+12всв32615 0.8 1017776
20:00+12ю54682 0.9 1017655
18 апреля, вс
вс1823:00+11ю56750 0.0 1019409
02:00+12юз44732 0.2 1019440
05:00+11сз237113 2.1 1018274
08:00+11с56695 2.6 1019486
11:00+13с66595 0.0 1020787
14:00+13ссз54550 0.0 1021870
17:00+13сз33542 0.0 1020737
20:00+13ю22540 0.0 1020146
19 апреля, пн
пн1923:00+13ю56630 0.0 1021323
02:00+13ююз6768100 0.0 1020393
05:00+14ююз6874100 0.0 1018439
08:00+14ююз697791 0.0 1017495
11:00+16юз797575 0.0 1017509
14:00+16юз7975100 0.0 1016507
17:00+16ююз6972100 0.0 1014385
20:00+16ююз61074100 0.0 1013349
20 апреля, вт
вт2023:00+16юз6876100 0.0 1013128
02:00+15зюз4584100 0.0 1012117
05:00+15ссз2283100 0.0 101124
08:00+15сз3379100 0.0 101165
11:00+16сз3370100 0.1 1011357
14:00+17ссз54695 0.1 1011557
17:00+17ссв65695 0.1 1010586
20:00+16с337489 0.3 1012177
21 апреля, ср
ср2123:00+15с227794 0.1 1013116
02:00+14ссв34815 0.1 1013240
05:00+14св45865 0.0 1013286
08:00+13всв45865 0.0 1014321
11:00+16св447241 0.0 1015760
14:00+16св556960 0.4 1015700
17:00+16св446538 0.1 1015702
20:00+16всв45663 0.1 1016304